Location: New Town
(33.2710°N, 90.7534°W)
Time: 14:09:22
(UTC+00:00)

Explorer 11/Cluster Stage 4 - Pass Details

Date: 22 May 2021
Orbit: 467 x 1257 km, 28.8° (Epoch: 14 June)

Event Time Altitude Azimuth Distance (km) Brightness Sun altitude
Rises 22:16:38 0° 241° (WSW) 3,158 10.4 32.2°
Reaches altitude 10° 22:18:57 10° 234° (SW) 2,352 9.9 31.7°
Maximum altitude 22:24:20 44° 164° (SSE) 1,247 7.8 30.6°
Drops below altitude 10° 22:30:59 10° 94° (E) 2,898 9.0 29.2°
Sets 22:34:07 0° 89° (E) 3,966 9.6 28.6°
